Weather in Panzhihua

China     23°02′14″N   102°34′30″E
temp.,
°C
wind,
m/s
gust,
m/s
humid.,
%
clouds,
%
prec.,
mm/h
press.,
hPa
HPBL,
m
26 february, fri
fri2623:00+13w126229 0.0 100823
02:00+12w126539 0.0 100824
05:00+11wsw12650 0.0 100724
08:00+10w12592 0.0 101025
11:00+20sw25310 0.0 10112018
14:00+22wsw26300 0.0 10082569
17:00+21sw363636 0.0 10052656
20:00+14w125935 0.0 100823
27 february, sat
sat2723:00+14wnw115873 0.0 101123
02:00+13w126283 0.0 101023
05:00+11wsw116558 0.0 100923
08:00+10ssw117439 0.0 101122
11:00+19s25410 0.0 10121443
14:00+22sw410320 0.0 10082669
17:00+22sw493228 0.0 10062789
20:00+15sw115619 0.0 100823
28 february, sun
sun2823:00+15wsw125790 0.0 101125
02:00+12wsw116246 0.0 101123
05:00+11sw116610 0.0 101022
08:00+11sw11677 0.0 101224
11:00+21ssw28380 0.0 10121323
14:00+23sw411310 0.0 10092421
17:00+23sw411290 0.0 10062640
20:00+15sw12550 0.0 100924
1 march, mon
mon123:00+14w12560 0.0 101124
02:00+13wsw12590 0.0 101123
05:00+12w11580 0.0 101123
08:00+11sw11600 0.0 101324
11:00+22ssw27320 0.0 10141502
14:00+24sw49270 0.0 10112472
17:00+24sw36260 0.0 10092858
20:00+16sw11490 0.0 101223
2 march, tue
tue223:00+15w11510 0.0 101523
02:00+14wnw11530 0.0 101523
05:00+12se00590 0.0 101423
08:00+12ene11660 0.0 101623
11:00+21sse22440 0.0 1016707
14:00+25sw482716 0.0 10122878
17:00+23ssw393545 0.0 10092667
20:00+17s125841 0.0 101147